This is the latest recevied weather packets stored in our database for station/object CE3TDM-12. If no packets are shown the sender has not sent any weather packets the latest 10 day(s).
| Time | Temp. | Humidity | Pressure | Rain* | Wind** | Luminosity | Snow |
|---|---|---|---|---|---|---|---|
| 1777634965 | 12.22° C | 35% | 778.2 hPa | - | - | - | - |
| 1777634665 | 11.67° C | 35% | 778.2 hPa | - | - | - | - |
| 1777634364 | 11.67° C | 36% | 778.1 hPa | - | - | - | - |
| 1777631686 | 11.11° C | 36% | 778 hPa | - | - | - | - |
| 1777631385 | 11.11° C | 36% | 778 hPa | - | - | - | - |
| 1777631085 | 11.11° C | 36% | 778.2 hPa | - | - | - | - |
| 1777628561 | 11.67° C | 36% | 777.8 hPa | - | - | - | - |
| 1777628259 | 11.67° C | 36% | 777.7 hPa | - | - | - | - |
| 1777627959 | 11.67° C | 35% | 777.8 hPa | - | - | - | - |
| 1777627658 | 11.67° C | 36% | 777.6 hPa | - | - | - | - |
| 1777627357 | 11.67° C | 36% | 777.5 hPa | - | - | - | - |
| 1777627057 | 11.67° C | 35% | 777.4 hPa | - | - | - | - |
| 1777626756 | 11.11° C | 36% | 777.6 hPa | - | - | - | - |
| 1777623572 | 12.78° C | 35% | 777.3 hPa | - | - | - | - |
| 1777623272 | 12.78° C | 35% | 777 hPa | - | - | - | - |
| 1777622971 | 12.78° C | 35% | 776.8 hPa | - | - | - | - |
| 1777622671 | 12.78° C | 35% | 776.9 hPa | - | - | - | - |
| 1777622370 | 12.78° C | 35% | 776.9 hPa | - | - | - | - |
| 1777622070 | 12.78° C | 36% | 776.4 hPa | - | - | - | - |
| 1777621769 | 12.22° C | 36% | 776.7 hPa | - | - | - | - |
| 1777621469 | 11.67° C | 36% | 776.8 hPa | - | - | - | - |
| 1777619158 | 12.22° C | 35% | 776.9 hPa | - | - | - | - |
| 1777618857 | 12.22° C | 36% | 776.8 hPa | - | - | - | - |
| 1777618554 | 12.22° C | 35% | 777.1 hPa | - | - | - | - |
| 1777618253 | 12.22° C | 35% | 776.9 hPa | - | - | - | - |
* Rain since midnight (hover to see other rain measurements)
** Current wind speed in m/s (hover to see current wind gust speed)